{"data":{"norad_id":67915,"epoch":"2026-09-19T07:11:42.164448Z","epoch_age_seconds":166917,"freshness":"FRESH","line1":"1 67915U 26036M   26262.29979357  .00008976  00000+0  33522-3 0  9991","line2":"2 67915  43.0035 231.7278 0001234 265.5253  94.5457 15.27586613 33333","mean_motion":15.27586613,"eccentricity":0.0001234,"inclination_deg":43.0035,"raan_deg":231.7278,"arg_perigee_deg":265.5253,"mean_anomaly_deg":94.5457,"bstar":0.00033522,"rev_number":3333,"period_min":94.266340628111,"perigee_km":482.18262648934,"apogee_km":483.87596233081,"semimajor_km":6861.1662944101,"source":"CELESTRAK","updated_at":"2026-09-20T09:00:43.703173Z"}}